Stanley, ID

3:42 PM MDT on September 25, 2017 (GMT -0600)
Stanley

Weather History for KSNT - September, 2013

Change the Weather History Date:

Wednesday, September 4, 2013

  Actual Average Record
Temperature  
Mean Temperature 62 °F 51 °F  
Max Temperature 79 °F 71 °F 91 °F (2017)
Min Temperature 44 °F 30 °F 20 °F (1989)
Degree Days  
Heating Degree Days 3 14  
Month to date heating degree days 17 55  
Since 1 July heating degree days 344 575  
Cooling Degree Days 0 0  
Month to date cooling degree days 0 0  
Year to date cooling degree days 19 3  
Growing Degree Days 11 (Base 50)    
Moisture  
Dew Point 48 °F    
Average Humidity 66    
Maximum Humidity 100    
Minimum Humidity 31    
Precipitation  
Precipitation 0.07 in 0.04 in 0.84 in (2015)
Month to date precipitation 0.11 0.14  
Year to date precipitation 6.56 11.43  
Sea Level Pressure  
Sea Level Pressure 30.05 in    
Wind  
Wind Speed 4 mph (SE)    
Max Wind Speed 16 mph    
Max Gust Speed 25 mph    
T = Trace of Precipitation, MM = Missing Value Source: NWS Daily Summary

Daily Weather History Graph

Daily Weather History Graph

Search for Another Location

Airport or City:

Trip Planner

Search our weather history database for the weather conditions in past years. The results will help you decide how hot, cold, wet, or windy it might be!

Date:

Astronomy

Sep. 04, 2013 Rise Set
Actual Time 7:06 AM MDT 8:09 PM MDT
Civil Twilight 6:36 AM MDT 8:39 PM MDT
Nautical Twilight 6:01 AM MDT 9:14 PM MDT
Astronomical Twilight 5:24 AM MDT 9:51 PM MDT
Moon 6:23 AM MDT (9/4) 7:30 PM MDT (9/4)
Length of Visible Light 14h 02m
Length of Day
13h 03m
Waning Crescent, 1% of the Moon is Illuminated
Sep 4
Waning Crescent
Sep 5
New
Sep 12
First Quarter
Sep 19
Full
Sep 26
Last Quarter

Hourly Weather History & Observations

Time (MDT) Temp. Windchill Dew Point Humidity Pressure Visibility Wind Dir Wind Speed Gust Speed Precip Events Conditions
12:51 AM 50.0 °F - 46.9 °F 89% 30.05 in - South 3.5 mph - N/A   Unknown
1:51 AM 46.9 °F - 45.0 °F 93% 30.08 in - Calm Calm - N/A   Unknown
2:51 AM 45.0 °F - 44.1 °F 97% 30.09 in - Calm Calm - N/A   Unknown
3:51 AM 45.0 °F 43.5 °F 44.1 °F 97% 30.09 in - South 3.5 mph - N/A   Unknown
4:51 AM 46.0 °F - 45.0 °F 96% 30.10 in - Calm Calm - N/A   Unknown
5:51 AM 46.9 °F - 46.0 °F 97% 30.09 in - Calm Calm - N/A   Unknown
6:51 AM 48.0 °F - 46.9 °F 96% 30.11 in - East 3.5 mph - N/A   Unknown
7:51 AM 50.0 °F - 48.9 °F 96% 30.10 in - Variable 3.5 mph - 0.07 in   Unknown
8:51 AM 50.0 °F - 48.9 °F 96% 30.14 in - Calm Calm - N/A   Unknown
9:51 AM 53.1 °F - 51.1 °F 93% 30.14 in - East 4.6 mph - N/A   Unknown
10:51 AM 57.0 °F - 53.1 °F 87% 30.14 in - Calm Calm - N/A   Unknown
11:51 AM 64.9 °F - 55.0 °F 70% 30.09 in - Variable 3.5 mph - N/A   Unknown
12:51 PM 72.0 °F - 54.0 °F 53% 30.04 in - Variable 4.6 mph - N/A   Unknown
1:51 PM 75.9 °F - 50.0 °F 40% 30.02 in - SE 6.9 mph - N/A   Unknown
2:51 PM 73.9 °F - 48.9 °F 41% 30.02 in - SE 6.9 mph - N/A   Unknown
3:51 PM 75.0 °F - 46.9 °F 37% 30.01 in - SE 4.6 mph - N/A   Unknown
4:51 PM 77.0 °F - 45.0 °F 32% 29.97 in - South 5.8 mph - N/A   Unknown
5:51 PM 75.0 °F - 44.1 °F 33% 29.97 in - SSE 8.1 mph - N/A   Unknown
6:51 PM 75.0 °F - 46.9 °F 37% 29.95 in - SSE 5.8 mph - N/A   Unknown
7:51 PM 71.1 °F - 46.9 °F 42% 29.96 in - SSE 5.8 mph - N/A   Unknown
8:51 PM 63.0 °F - 46.9 °F 56% 30.01 in - SE 3.5 mph - N/A   Unknown
9:51 PM 61.0 °F - 48.0 °F 62% 30.01 in - SE 4.6 mph - N/A   Unknown
10:51 PM 59.0 °F - 46.9 °F 64% 30.02 in - SSE 6.9 mph - N/A   Unknown
11:51 PM 64.0 °F - 46.9 °F 54% 29.98 in - ESE 13.8 mph 25.3 mph N/A   Unknown